Погода в Томмоте

Россия / Республика Саха (Якутия)     58°57′31″N   126°17′15″E
темп.,
°C
ветер,
м/с
пор.,
м/с
влажн.,
%
обл.,
%
осадки,
мм/ч
давл.,
гПа
погр.,
м
27 февраля, сб
сб2700:00−27вюв128986 0.0 102819
03:00−28вюв119079 0.0 102619
06:00−27в119197 0.0 102419
09:00−24всв119299 0.0 102264
12:00−18всв1294100 0.3 1020231
15:00−15ссв1291100 0.6 1016379
18:00−17ссз2497100 0.6 1017213
21:00−19зсз4896100 1.3 1018655
28 февраля, вс
вс2800:00−21зсз51094100 0.6 1019874
03:00−24зсз51093100 0.8 1022894
06:00−24зсз41095100 0.2 10251129
09:00−24зсз61191100 0.3 10261213
12:00−23зсз61088100 0.2 10291333
15:00−23зсз61085100 0.3 10291351
18:00−25зсз4988100 0.1 10311111
21:00−26з31091100 0.1 1033941
1 марта, пн
пн100:00−27з41090100 0.0 1033527
03:00−29з4994100 0.0 1034377
06:00−30з3995100 0.0 1034282
09:00−29з3895100 0.1 1034350
12:00−26з3689100 0.1 1033753
15:00−24з3684100 0.1 10311151
18:00−26з2291100 0.1 103137
21:00−30зюз1193100 0.1 103219
2 марта, вт
вт200:00−32зюз119796 0.0 103119
03:00−35юз0110082 0.0 103119
06:00−35вюв119993 0.0 103119
09:00−33вюв119570 0.0 103034
12:00−24вюв12862 0.0 1026360
15:00−22в127832 0.0 1024895
18:00−25в238997 0.0 102437
21:00−31вюв118972 0.0 102519
3 марта, ср
ср300:00−34вюв11870 0.0 102519
03:00−36в119013 0.0 102419
06:00−38в119118 0.0 102419
09:00−34в009132 0.0 102330
12:00−26ссв018544 0.0 1020380
15:00−23с128267 0.0 1018677
18:00−27ссз1292100 0.0 102019
21:00−31зсз119699 0.0 102119